Regional Weather Roundup
Issued by NWS

Home | Current Version | Previous Version | Text Only | Print | Product List | Glossary Off
Versions: 1 2 3 4 5 6 7 8 9 10 11 12 13 14 15 16 17 18 19 20 21 22 23 24 25 26 27 28 29 30 31 32 33 34 35 36 37 38 39 40 41 42 43 44 45 46 47 48 49 50

000
ASUS43 KLSX 062210
RWRMO

WEATHER SUMMARY FOR MISSOURI
NATIONAL WEATHER SERVICE SPRINGFIELD MO
400 PM CST SAT FEB 06 2016

NOTE: "FAIR" INDICATES FEW OR NO CLOUDS BELOW 12,000 FEET WITH NO
       SIGNIFICANT WEATHER AND/OR OBSTRUCTIONS TO VISIBILITY.
       CURRENT SKY AND/OR WEATHER CONDITIONS ARE NOT AVAILABLE FOR
       CHILLICOTHE AND FARMINGTON.

MOZ001>031-035>038-043-044-053-054-062300-
...NORTHERN AND WESTERN MISSOURI...

CITY           SKY/WX    TMP DP  RH WIND       PRES   REMARKS
KANSAS CTY INT MOSUNNY   48  30  49 SW12      30.19F
KANSAS C DTWN  SUNNY     50  29  44 SW14G20   30.20F
LEE`S SUMMIT   SUNNY     48  29  47 SW15      30.21F
ST JOSEPH      SUNNY     48  30  49 SW13      30.18F
CHILLICOTHE      N/A     49  31  49 SW8       30.19F
KIRKSVILLE     SUNNY     46  28  49 SW12      30.18S

$$
MOZ066>068-077>081-088>096-101>105-062300-
...SOUTHWEST MISSOURI...

CITY           SKY/WX    TMP DP  RH WIND       PRES   REMARKS
SPRINGFIELD    SUNNY     52  25  35 SW13      30.23S
JOPLIN         PTSUNNY   52  32  46 SW12      30.26S

$$
MOZ032>034-039>042-045>050-055>058-069>072-062300-
...CENTRAL MISSOURI...

CITY           SKY/WX    TMP DP  RH WIND       PRES   REMARKS
COLUMBIA       SUNNY     53  27  36 W13       30.19F
JEFFERSON CITY SUNNY     55  26  32 SW14G23   30.20F
ROLLA          PTSUNNY   53  27  36 SW9       30.20S
SEDALIA        SUNNY     51  27  39 SW14G23   30.22F
WHITEMAN AFB   SUNNY     50  27  40 W10       30.21S
WARRENSBURG    SUNNY     50  32  50 SW10G17   30.22F
OSAGE BEACH    PTSUNNY   54  27  35 SW12G18   30.23R

$$
MOZ051-052-059>065-062300-
...EAST CENTRAL MISSOURI...

CITY           SKY/WX    TMP DP  RH WIND       PRES   REMARKS
ST LOUIS INTL  MOSUNNY   57  25  29 W13       30.21S
SPIRIT OF STL  MOSUNNY   55  27  34 W12       30.20S
ST CHARLES     SUNNY     55  29  36 SW13G28   30.19F

$$
MOZ072>076-082>087-097>100-106>115-062300-
...SOUTH CENTRAL AND SOUTHEAST MISSOURI...

CITY           SKY/WX    TMP DP  RH WIND       PRES   REMARKS
CAPE GIRARDEAU SUNNY     54  21  27 SW12      30.26S
FARMINGTON     MOSUNNY   55  21  26 SW13      30.22S
POPLAR BLUFF   SUNNY     54  20  26 S13       30.26F
WEST PLAINS    SUNNY     52  15  23 VRB5      30.26S

$$



USA.gov is the U.S. government's official web portal to all federal, state and local government web resources and services.